Miscellaneous Local Product
Issued by NWS Hastings, NE

Home | Current Version | Previous Version | Text Only | Print | Product List | Glossary Off
Versions: 1 2 3 4 5 6 7 8 9 10 11 12 13 14 15 16 17 18 19 20 21 22 23 24 25 26 27 28 29 30 31 32 33 34 35 36 37 38 39 40 41 42 43 44 45 46 47 48 49 50

000
AXUS43 KGID 211902
MISGRI

GID CWA HOURLY WEATHER ROUNDUP
NATIONAL WEATHER SERVICE HASTINGS NE
200 PM CDT MON APR 21 2014

NOTE: "FAIR" INDICATES FEW OR NO CLOUDS BELOW 12,000 FEET WITH NO
SIGNIFICANT WEATHER AND/OR OBSTRUCTIONS TO VISIBILITY.

...SOUTH CENTRAL NEBRASKA...

CITY           SKY/WX    TMP DP  RH WIND       PRES   REMARKS
GRAND ISLAND   MOSUNNY   72  26  18 N25G32    30.14S
HASTINGS       MOSUNNY   70  29  21 N22G32    30.13S
KEARNEY        SUNNY     68  30  24 N17G28    30.16F
ORD            SUNNY     70  25  18 N20G30    30.14F
YORK           SUNNY     72  28  20 N24G37    30.10S
AURORA         MOSUNNY   71  29  20 N20G31    30.11F
LEXINGTON      SUNNY     70  28  20 N13G29    30.18S
HOLDREGE       SUNNY     69  29  22 N23G29    30.16S
HEBRON         SUNNY     72  28  19 N21G33    30.08S

...NEBRASKA PANHANDLE...

CITY           SKY/WX    TMP DP  RH WIND       PRES   REMARKS
CHADRON        CLOUDY    65  25  22 N5        30.22F
ALLIANCE       MOSUNNY   65  20  17 MISG      30.23F
SCOTTSBLUFF    SUNNY     66  28  24 SE9       30.23F
SIDNEY         SUNNY     65  25  22 SE9       30.25F

...WESTERN AND NORTH CENTRAL NEBRASKA...

CITY           SKY/WX    TMP DP  RH WIND       PRES   REMARKS
VALENTINE      SUNNY     68  23  18 N14G22    30.21S
AINSWORTH      SUNNY     67  24  19 N17G25    30.20S
ONEILL         SUNNY     70  15  12 N21G29    30.16F
BROKEN BOW     SUNNY     67  25  20 N16G30    30.17S
IMPERIAL       SUNNY     70  19  14 MISG      30.22F
NORTH PLATTE   SUNNY     70  25  18 NE9G20    30.20S
MCCOOK         SUNNY     71  26  18 VRB6      30.19F

...EASTERN NEBRASKA...

CITY           SKY/WX    TMP DP  RH WIND       PRES   REMARKS
NORFOLK        MOSUNNY   71  25  17 N26G35    30.10S
SO SIOUX CITY  SUNNY     74  25  16 N26       30.04S
TEKAMAH        MOSUNNY   76  22  13 N25G33    30.04S
COLUMBUS       SUNNY     72  28  20 N22G32    30.11R
ALBION         MOSUNNY   70  24  17 N17G29    30.13S
OMAHA EPPLEY   PTSUNNY   72  36  26 N24G37    30.02S
OFFUTT AFB     MOSUNNY   73  40  29 N15G29    30.01F
MILLARD        MOSUNNY   71  33  24 NW17G26   30.03S
LINCOLN        SUNNY     74  33  22 N25G32    30.06S
NEBRASKA CITY  MOSUNNY   73  49  43 N21G26    30.01S
BEATRICE       SUNNY     75  36  24 N25       30.04S
FALLS CITY     PTSUNNY   75  57  53 N12       29.97F

...NORTHERN KANSAS...

CITY           SKY/WX    TMP DP  RH WIND       PRES   REMARKS
GOODLAND       SUNNY     68  29  23 NE14G23   30.22F
HILL CITY      SUNNY     70  35  27 NE20G26   30.17S
PHILLIPSBURG   SUNNY     72  30  21 N20G25    30.15S
SMITH CENTER   SUNNY     72  32  23 N23G30    30.12F
BELOIT         SUNNY     73  36  25 N24G33    30.06S
HAYS           SUNNY     72  41  33 N17       30.13S
RUSSELL        SUNNY     74  37  26 N17G30    30.08F
CONCORDIA      SUNNY     76  37  24 N25G33    30.06S
SALINA         MOSUNNY   80  48  32 N15G22    30.02F
TOPEKA         MOSUNNY   76  58  53 N15G21    29.98F



USA.gov is the U.S. government's official web portal to all federal, state and local government web resources and services.